Voltar ao catálogo

SL-8 DEB

AtivoLEO
NORAD 22840·DEBRIS·🇷🇺 Russia

Lançado Feb 12, 1991 de Plesetsk Cosmodrome

Loading…

Próximas Passagens (próximas 24 horas)

TLE

AtualizadoSource: Space-Track

Época: Sep 14, 2026, 05:39 UTC

1 22840U 91009CK  26257.23575060  .00000226  00000-0  17265-2 0  9998
2 22840  73.9553 188.0602 0169635   5.3578 148.6160 12.39996829540691

Acompanhe SL-8 DEB em tempo real com AllMySat

Download on the App Store